Regional Weather Roundup
Issued by NWS

Home | Current Version | Previous Version | Graphics & Text | Print | Product List | Glossary On
Versions: 1 2 3 4 5 6 7 8 9 10 11 12 13 14 15 16 17 18 19 20 21 22 23 24 25 26 27 28 29 30 31 32 33 34 35 36 37 38 39 40 41 42 43 44 45 46 47 48 49 50
000
ASUS43 KDMX 310607
RWRIA

WEATHER ROUNDUP FOR IOWA
NATIONAL WEATHER SERVICE DES MOINES IA
100 AM CDT MON AUG 31 2015

NOTE: "FAIR" INDICATES FEW OR NO CLOUDS BELOW 12,000 FEET WITH NO
SIGNIFICANT WEATHER AND/OR OBSTRUCTIONS TO VISIBILITY.

* - THESE STATIONS ARE NOT NWS STATIONS...THUS NOT UNDER NWS
QUALITY CONTROL.  THEY ALSO DO NOT REPORT WEATHER SUCH
AS PRECIPITATION OR FOG.

IAZ001>003-012>014-020>022-031>034-043>046-310700-
   NORTHWEST IOWA

CITY           SKY/WX    TMP DP  RH WIND       PRES   REMARKS
CARROLL *      CLOUDY    61  61 100 CALM      29.99S FOG
CHEROKEE *       N/A     64  64 100 S7        29.96S FOG
DENISON *      CLOUDY    68  66  94 S9        29.96F
LE MARS *      CLEAR     66  66 100 S9        29.95S
ORANGE CITY *  CLEAR     64  64 100 S7        29.94S FOG
SHELDON *      MOCLDY    64  64 100 S7G14     29.93S FOG
SPENCER          N/A     64  61  90 S7        29.96S FOG
6HR MIN TEMP:  61; 6HR MAX TEMP:  72;

STORM LAKE *   CLEAR     63  63 100 S9        29.98F FOG
$$

IAZ055>058-069>071-079>083-090>094-310700-
   SOUTHWEST IOWA

CITY           SKY/WX    TMP DP  RH WIND       PRES   REMARKS
ATLANTIC *     CLOUDY    61  61 100 CALM      29.99F
AUDUBON *      FOG       59  55  88 CALM      30.00F VSB 0
CLARINDA *     FOG       64  64 100 CALM      29.99F VSB 1
COUNCIL BLFS * CLEAR     66  66 100 S5        29.98F
CRESTON *      CLEAR     66  66 100 SE3       30.02S FOG
HARLAN  *      FOG       61 N/A N/A CALM      30.02S VSB 0
LAMONI           N/A     71  67  87 CALM      30.00S
6HR MIN TEMP:  71; 6HR MAX TEMP:  78;

RED OAK *      MOCLDY    64  64 100 CALM      29.99S
SHENANDOAH *   PTCLDY    64  64 100 CALM      29.98F FOG
$$

IAZ047>049-059>061-072>074-084-310700-
   CENTRAL IOWA

CITY           SKY/WX    TMP DP  RH WIND       PRES   REMARKS
AMES           FOG       62  62 100 SE5       30.00S VSB 1/4
6HR MIN TEMP:  60; 6HR MAX TEMP:  72; 6HR PCP: TRACE;

ANKENY *       FOG       63  63 100 CALM      30.00S VSB 0
CHARITON *     CLOUDY    68  66  94 SE3       30.00F FOG
DES MOINES       N/A     69  65  86 SE6       29.99S
6HR MIN TEMP:  69; 6HR MAX TEMP:  77;

GRINNELL*        N/A     64  63  94 SE6       30.03R FOG
KNOXVILLE *    CLEAR     68  66  94 SE5       30.00S FOG
MARSHALLTOWN     N/A     62  62 100 S6        30.01R FOG
6HR MIN TEMP:  62; 6HR MAX TEMP:  71;

PELLA *          N/A     66  66 100 SE3       30.02S FOG
PERRY *        FOG       64  63  94 CALM      30.00S VSB 1/4
$$

IAZ004>006-015-016-023>025-035-036-310700-
   NORTH CENTRAL IOWA

CITY           SKY/WX    TMP DP  RH WIND       PRES   REMARKS
ALGONA *       MOCLDY    64  64 100 S9        29.98S FOG
CLARION *      CLEAR     63  63 100 S7        30.00R FOG
ESTHERVILLE      N/A     62  62 100 S8        29.95F FOG
6HR MIN TEMP:  62; 6HR MAX TEMP:  71;

FORT DODGE *     N/A     64  61  88 S3        30.00S
MASON CITY       N/A     59  59 100 S7        30.01S FOG
6HR MIN TEMP:  58; 6HR MAX TEMP:  70;

FOREST CITY *  FOG       57  57 100 S3        30.00R VSB 1/2
IOWA FALLS *   FOG       63  61  94 SE6       30.02S VSB 1/2
$$

IAZ007>011-017>019-026>030-037>042-050>054-066-310700-
   NORTHEAST IOWA

CITY           SKY/WX    TMP DP  RH WIND       PRES   REMARKS
CEDAR RAPIDS     N/A     63  63 100 SE5       30.01S FOG
6HR MIN TEMP:  62; 6HR MAX TEMP:  71;

CHARLES CITY * MOCLDY    63  63 100 S5        30.02R FOG
CLINTON *        N/A     61  61 100 E3        30.05R
DECORAH *      CLOUDY    63  63 100 S7        30.01S FOG
DUBUQUE          N/A     61  60  97 S3        30.04S FOG
6HR MIN TEMP:  60; 6HR MAX TEMP:  70;

MONTICELLO *   FOG       59  57  94 CALM      30.02F VSB 1/4
OELWEIN *      CLEAR     61  61 100 S5        30.02  FOG
WATERLOO         N/A     62  61  96 S3        30.00S FOG
6HR MIN TEMP:  60; 6HR MAX TEMP:  71;

$$

IAZ064-065-067-068-078-310700-
   EAST CENTRAL IOWA

CITY           SKY/WX    TMP DP  RH WIND       PRES   REMARKS
DAVENPORT        N/A     62  60  93 CALM      30.03S
6HR MIN TEMP:  62; 6HR MAX TEMP:  72;

IOWA CITY        N/A     63  62  97 CALM      30.03S FOG
6HR MIN TEMP:  63; 6HR MAX TEMP:  75;

MT. PLEASANT *   N/A     66  62  89 CALM      30.02R FOG
MUSCATINE *    FOG       63  61  94 CALM      30.02S VSB 1/4
QUAD CITIES      N/A     63  60  90 E3        30.02S FOG
6HR MIN TEMP:  62; 6HR MAX TEMP:  76;

$$

IAZ062-063-075>077-085>089-095>099-310700-
   SOUTHEAST IOWA

CITY           SKY/WX    TMP DP  RH WIND       PRES   REMARKS
BURLINGTON       N/A     70  67  90 E3        30.01S
6HR MIN TEMP:  69; 6HR MAX TEMP:  79;

FAIRFIELD *    CLEAR     64  64 100 NE5       30.02R FOG
FORT MADISON *   N/A     64  64 100 CALM      30.02S FOG
KEOKUK *       CLEAR     72  68  88 SE6       30.00S
OSKALOOSA *      N/A     65  64  96 SE6       30.02S FOG
CENTERVILLE *  CLEAR     66  66 100 E5        30.02F FOG
OTTUMWA          N/A     67  66  97 E5        30.00R
6HR MIN TEMP:  64; 6HR MAX TEMP:  76;

WASHINGTON *     N/A    N/A N/A N/A MISG        N/A
$$

ABBREVIATIONS USED IN REMARKS
   TC - TEMPERATURES IN CELSIUS
  WCI - WIND CHILL INDEX
   HX - HEAT INDEX
  VSB - VISIBILITY
$$




USA.gov is the U.S. government's official web portal to all federal, state and local government web resources and services.